カタログに戻る

FENGYUN 1C DEB

運用中PO
NORAD 31319·DEBRIS·🇨🇳 China

打ち上げ May 10, 1999 から Taiyuan Satellite Launch Center

Loading…

次のパス (今後24時間)

TLE

最新Source: Space-Track

元期: Sep 14, 2026, 12:45 UTC

1 31319U 99025BPX 26257.53192397  .00000091  00000-0  11979-3 0  9993
2 31319  98.7976 140.9989 0170740  70.9156  46.5419 13.75912052974804

AllMySatでFENGYUN 1C DEBをリアルタイム追跡

Download on the App Store